Погода во Врангеле

США     56°27′41″N   132°22′04″W
темп.,
°C
ветер,
м/с
пор.,
м/с
влажн.,
%
обл.,
%
осадки,
мм/ч
давл.,
гПа
погр.,
м
19 апреля, пн
пн1901:00+3всв44810 0.0 102667
04:00+2всв44804 0.0 102668
07:00+3всв34754 0.0 102683
10:00+8св23587 0.0 1025215
13:00+12св22518 0.0 1026425
16:00+13ссв114759 0.0 1025660
19:00+10св2266100 0.0 102626
22:00+7св117376 0.0 102711
20 апреля, вт
вт2001:00+6св1176100 0.0 102712
04:00+5св118199 0.0 102711
07:00+6ссв0082100 0.0 102729
10:00+8зюз1276100 0.0 1027329
13:00+10юз126610 0.0 1027636
16:00+10зюз126891 0.0 1025540
19:00+8ю118198 0.0 1025113
22:00+6зюз11915 0.1 102519
21 апреля, ср
ср2101:00+4юз119732 0.0 102517
04:00+4зюз119759 0.0 102455
07:00+4зюз129477 0.0 1024186
10:00+5зюз118181 0.0 1025502
13:00+7з026838 0.1 1024653
16:00+8з126157 0.1 1023763
19:00+8зсз126641 0.0 102293
22:00+5ссв22720 0.0 102323
22 апреля, чт
чт2201:00+3св33640 0.0 102445
04:00+2всв33630 0.0 102460
07:00+3св33570 0.0 1022112
10:00+7св22390 0.0 1021570
13:00+10сз12340 0.0 1019992
16:00+10с12320 0.0 10171060
19:00+9с11430 0.0 101648
22:00+6св22550 0.0 101630
23 апреля, пт
пт2301:00+4св33600 0.0 101638
04:00+3св33620 0.0 101552
07:00+4всв34570 0.0 1015100
10:00+9св23372 0.0 1013489
13:00+12св23325 0.0 1013967
16:00+13ссв23311 0.0 10111141
19:00+11св34410 0.0 101179
22:00+7св33530 0.0 101239